Location: Clair
(33.8067°N, 117.9845°W)
Time: 17:16:43
(UTC+00:00)

Cosmos 2333 Rocket - Pass Details

Date: 14 February 2026
Orbit: 840 x 862 km, 70.8° (Epoch: 8 March)

Event Time Altitude Azimuth Distance (km) Brightness Sun altitude
Rises 14:00:52 0° 202° (SSW) 3,423 5.2 -8.2°
Reaches altitude 10° 14:03:19 10° 203° (SSW) 2,489 4.5 -7.7°
Maximum altitude 14:09:03 82° 291° (WNW) 873 2.2 -6.5°
Drops below altitude 10° 14:14:48 10° 19° (NNE) 2,495 4.8 -5.4°
Sets 14:17:16 0° 20° (NNE) 3,431 5.5 -4.9°
